Regional Weather Roundup
Issued by NWS

Home | Current Version | Previous Version | Graphics & Text | Print | Product List | Glossary On
Versions: 1 2 3 4 5 6 7 8 9 10 11 12 13 14 15 16 17 18 19 20 21 22 23 24 25 26 27
000
ASUS45 KCYS 230410
RWRWY

WYOMING REGIONAL WEATHER ROUNDUP
NATIONAL WEATHER SERVICE CHEYENNE WY
1000 PM MDT TUE MAY 22 2018

NOTE:  "FAIR" INDICATES FEW OR NO CLOUDS BELOW 12,000 FEET
WITH NO SIGNIFICANT WEATHER AND/OR OBSTRUCTIONS TO VISIBILITY.

WYZ001-230500-
YELLOWSTONE NATIONAL PARK

CITY           SKY/WX    TMP DP  RH WIND       PRES   REMARKS
LK YELLOWSTONE   N/A     45  38  76 CALM      30.12R
W YELLOWSTONE  NOT AVBL

$$
WYZ002>013-054>058-071-098>099-230500-
NORTHERN WYOMING

CITY           SKY/WX    TMP DP  RH WIND       PRES   REMARKS
JACKSON        CLOUDY    50  42  74 NW6       30.05R
CODY           RAIN      52  49  89 S14       30.06S
GREYBULL       RAIN      57  54  89 NW7       29.99R FOG
WORLAND        LGT RAIN  56  54  93 CALM      30.01R FOG
SHERIDAN       CLOUDY    63  55  75 NW8       29.94S THUNDER
BUFFALO        RAIN      54  49  83 W13       30.04R
GILLETTE       MOCLDY    62  49  62 SE16      29.98R
NEWCASTLE      FAIR      57  48  72 NE16G24   29.99F

$$
WYZ014>020-022>026-101>103-230500-
CENTRAL WYOMING

CITY           SKY/WX    TMP DP  RH WIND       PRES   REMARKS
BIG PINEY      CLOUDY    47  44  90 S5        30.10R
PINEDALE       CLOUDY    45  41  87 CALM      30.09R
DUBOIS         DRIZZLE   43  41  93 SW3       30.11S
LANDER         LGT RAIN  50  44  80 W8        30.03F
RIVERTON       LGT RAIN  52  50  93 W12       30.06R
CASPER         LGT RAIN  53  52  96 NE8       30.03S
DOUGLAS        RAIN      54  54 100 N10       30.01R FOG

$$
WYZ021-027>030-104>119-230500-
SOUTHERN WYOMING

CITY           SKY/WX    TMP DP  RH WIND       PRES   REMARKS
EVANSTON       TSTM      47  40  76 SW9       30.07R
KEMMERER       MOCLDY    50  41  71 CALM      30.08R
FORT BRIDGER   CLOUDY    49  44  82 S8        30.10R
ROCK SPRINGS   FAIR      46  44  93 E12       30.07R
DIXON          FAIR      48  41  77 SE5       30.12R
RAWLINS        FAIR      50  40  68 W13       30.09R
SARATOGA       CLOUDY    46  46 100 E3        30.10F
LARAMIE        LGT RAIN  49  47  93 N5        30.12R
CHEYENNE       RAIN      53  51  93 E9        30.06R FOG
TORRINGTON     LGT RAIN  60  56  86 S33G44    29.92R
PINE BLUFFS    LGT RAIN  55  54  94 W18       30.03R

$$




USA.gov is the U.S. government's official web portal to all federal, state and local government web resources and services.